CW8078 Weather Reports


time (UTC)temp
F
wind
direction
speed
knots
gust
knots
rain 1hr
in
rain 24hr
in
rain mn
in
humidity
%
barometer
mb
20260901141802 80 150 0.0 0.0 0.00 0.00 0.00 76 1014.8
20260901141302 79 150 0.0 0.0 0.00 0.00 0.00 77 1014.7
20260901140802 79 150 0.0 0.0 0.00 0.00 0.00 77 1014.7
20260901140302 78 150 0.0 0.0 0.00 0.00 0.00 78 1014.8
20260901134802 77 150 0.0 0.0 0.00 0.00 0.00 79 1014.8
20260901134302 77 150 0.0 0.0 0.00 0.00 0.00 79 1014.9
20260901133801 76 150 0.0 0.0 0.00 0.00 0.00 80 1014.8
20260901133302 76 150 0.0 0.0 0.00 0.00 0.00 79 1014.8
20260901131802 74 150 0.0 0.0 0.00 0.00 0.00 85 1014.6
20260901131302 72 150 0.0 0.0 0.00 0.00 0.00 87 1014.6
20260901124802 71 150 0.0 0.0 0.00 0.00 0.00 88 1014.5
20260901123802 70 150 0.0 0.0 0.00 0.00 0.00 89 1014.4
20260901123302 70 150 0.0 0.0 0.00 0.00 0.00 88 1014.3
20260901121802 70 150 0.0 0.0 0.00 0.00 0.00 88 1014.3
20260901121301 70 150 0.0 0.0 0.00 0.00 0.00 88 1014.2
20260901120802 70 150 0.0 0.0 0.00 0.00 0.00 88 1014.1
20260901114303 70 150 0.0 0.0 0.00 0.00 0.00 88 1013.9
20260901113802 70 150 0.0 0.0 0.00 0.00 0.00 87 1013.8
20260901113302 70 150 0.0 0.0 0.00 0.00 0.00 87 1013.7
20260901111802 70 150 0.0 0.0 0.00 0.00 0.00 87 1013.5
20260901110802 70 150 0.0 0.0 0.00 0.00 0.00 87 1013.4
20260901110302 70 150 0.0 0.0 0.00 0.00 0.00 86 1013.3
20260901104802 71 150 0.0 0.0 0.00 0.00 0.00 86 1013.3
20260901104302 71 150 0.0 0.0 0.00 0.00 0.00 86 1013.4
20260901103802 71 150 0.0 0.0 0.00 0.00 0.00 86 1013.4
20260901103301 71 150 0.0 0.0 0.00 0.00 0.00 85 1013.3
20260901101802 71 150 0.0 0.0 0.00 0.00 0.00 86 1013.3
20260901101302 71 150 0.0 0.0 0.00 0.00 0.00 86 1013.3
20260901100802 71 150 0.0 0.0 0.00 0.00 0.00 86 1013.3
20260901100302 71 150 0.0 0.0 0.00 0.00 0.00 85 1013.3
20260901094803 71 150 0.0 0.0 0.00 0.00 0.00 85 1013.3
20260901094302 71 150 0.0 0.0 0.00 0.00 0.00 85 1013.2
20260901093802 71 150 0.0 0.0 0.00 0.00 0.00 85 1013.2
20260901093302 71 150 0.0 0.0 0.00 0.00 0.00 85 1013.2
20260901091302 72 150 0.0 0.0 0.00 0.00 0.00 84 1013.0
20260901090802 72 150 0.0 0.0 0.00 0.00 0.00 85 1013.1
20260901090303 72 150 0.0 0.0 0.00 0.00 0.00 84 1013.1
20260901084802 72 150 0.0 0.0 0.00 0.00 0.00 84 1012.9
20260901084302 72 150 0.0 0.0 0.00 0.00 0.00 84 1012.8
20260901083302 72 150 0.0 0.0 0.00 0.00 0.00 85 1012.8
20260901081802 73 150 0.0 0.0 0.00 0.00 0.00 83 1012.8
20260901080802 73 150 0.0 0.0 0.00 0.00 0.00 83 1012.7
20260901080302 73 150 0.0 0.0 0.00 0.00 0.00 84 1012.7
20260901073802 74 150 0.0 0.0 0.00 0.00 0.00 83 1012.6
20260901073302 74 150 0.0 0.0 0.00 0.00 0.00 83 1012.6
20260901071802 74 150 0.0 0.0 0.00 0.00 0.00 83 1012.7
20260901071302 74 150 0.0 0.0 0.00 0.00 0.00 83 1012.6
20260901070802 75 150 0.0 0.0 0.00 0.00 0.00 82 1012.6
20260901070302 75 150 0.0 0.0 0.00 0.00 0.00 81 1012.6
20260901064802 75 151 0.0 0.0 0.00 0.00 0.00 81 1012.6
20260901064302 75 151 0.0 0.0 0.00 0.00 0.00 80 1012.6
20260901063802 76 152 0.0 0.0 0.00 0.00 0.00 79 1012.6
20260901063302 76 152 0.0 0.0 0.00 0.00 0.00 80 1012.6
20260901061802 76 152 0.0 0.0 0.00 0.00 0.00 79 1012.7
20260901060302 77 152 0.0 0.0 0.00 0.00 0.00 77 1012.6
20260901054802 78 152 0.0 0.0 0.00 0.00 0.00 76 1012.6
20260901054302 79 152 0.0 0.0 0.00 0.00 0.00 77 1012.5
20260901053802 79 152 0.0 0.0 0.00 0.00 0.00 77 1012.5
20260901053302 79 29 0.0 0.0 0.00 0.00 0.00 76 1012.4
20260901051802 80 150 0.0 0.0 0.00 0.00 0.00 72 1012.3
20260901051302 81 150 0.0 0.0 0.00 0.00 0.00 72 1012.2
20260901050802 81 150 0.0 0.0 0.00 0.00 0.00 71 1012.2
20260901050303 81 150 0.0 0.0 0.00 0.00 0.00 71 1012.2
20260901044802 81 132 0.0 0.0 0.00 0.00 0.00 73 1012.3
20260901044303 81 132 0.0 0.0 0.00 0.00 0.00 73 1012.3
20260901043302 81 136 0.0 0.0 0.00 0.00 0.00 73 1012.3
20260901041802 82 136 0.0 0.0 0.00 0.00 0.00 71 1012.2
20260901041302 82 130 0.0 0.0 0.00 0.00 0.00 71 1012.2
20260901040802 82 156 0.0 0.0 0.00 0.00 0.00 72 1012.2
20260901040303 82 142 0.0 0.0 0.00 0.00 0.00 72 1012.2
20260901034302 83 115 0.0 0.0 0.00 0.00 0.00 70 1012.1
20260901033802 83 140 0.0 0.0 0.00 0.00 0.00 70 1012.1
20260901033302 83 155 0.0 0.0 0.00 0.00 0.00 70 1012.2
20260901031302 84 154 0.0 0.0 0.00 0.00 0.00 69 1012.1
20260901030802 84 154 0.0 0.0 0.00 0.00 0.00 68 1012.1
20260901030302 84 154 0.0 0.0 0.00 0.00 0.00 68 1012.1
20260901024802 84 147 0.0 0.0 0.00 0.00 0.00 67 1012.1
20260901024302 84 147 0.0 0.0 0.00 0.00 0.00 67 1012.0
20260901023802 84 147 0.0 0.0 0.00 0.00 0.00 67 1012.0
20260901023302 85 120 0.0 0.0 0.00 0.00 0.00 66 1012.0
20260901021803 85 144 0.0 0.0 0.00 0.00 0.00 65 1011.8
20260901021303 86 144 0.0 0.0 0.00 0.00 0.00 64 1011.7
20260901020302 86 153 0.0 0.0 0.00 0.00 0.00 64 1011.6
20260901014802 86 135 0.0 0.0 0.00 0.00 0.00 64 1011.5
20260901013302 87 157 0.0 0.0 0.00 0.00 0.00 63 1011.4
20260901011802 87 175 0.0 0.0 0.00 0.00 0.00 62 1011.3
20260901011303 87 144 0.0 0.0 0.00 0.00 0.00 62 1011.2
20260901010802 87 144 0.0 0.0 0.00 0.00 0.00 62 1011.2
20260901010303 87 144 0.0 0.0 0.00 0.00 0.00 61 1011.2
20260901004802 88 144 0.0 0.0 0.00 0.00 0.00 59 1011.1
20260901004302 88 144 0.0 0.0 0.00 0.00 0.00 59 1011.0
20260901003303 88 154 0.0 0.0 0.00 0.00 0.00 60 1011.0
20260901001802 87 168 0.0 0.0 0.00 0.00 0.00 65 1011.0
20260901001302 87 142 0.0 0.0 0.00 0.00 0.00 69 1011.1
20260901000803 87 142 0.0 0.0 0.00 0.00 0.00 70 1011.1
20260901000303 88 142 0.0 0.0 0.00 0.00 0.00 66 1011.0
20260831234803 89 142 0.0 0.0 0.00 0.00 0.00 65 1011.0
20260831234303 89 142 0.0 0.0 0.00 0.00 0.00 64 1011.0
20260831233802 89 142 0.0 0.0 0.00 0.00 0.00 63 1011.0
20260831231802 90 142 0.0 0.0 0.00 0.00 0.00 60 1011.0
20260831231303 91 142 0.0 0.0 0.00 0.00 0.00 57 1011.0
20260831230302 91 142 0.0 0.0 0.00 0.00 0.00 57 1011.0
20260831224803 92 142 0.0 0.0 0.00 0.00 0.00 55 1010.9
20260831223803 93 142 0.0 0.0 0.00 0.00 0.00 55 1010.9
20260831223302 94 142 0.0 0.0 0.00 0.00 0.00 55 1010.9
20260831221802 96 142 0.0 0.0 0.00 0.00 0.00 53 1011.0
20260831221303 96 142 0.0 0.0 0.00 0.00 0.00 45 1011.0
20260831220802 96 175 0.0 0.0 0.00 0.00 0.00 49 1011.0
20260831220302 96 175 0.0 0.0 0.00 0.00 0.00 46 1011.1
20260831214802 97 175 0.0 0.0 0.00 0.00 0.00 46 1011.1
20260831214303 97 122 0.0 0.0 0.00 0.00 0.00 41 1011.1
20260831213303 97 167 0.0 0.0 0.00 0.00 0.00 42 1011.0
20260831211803 97 136 0.0 0.0 0.00 0.00 0.00 43 1011.1
20260831210802 97 167 0.0 0.0 0.00 0.00 0.00 43 1011.1
20260831210302 97 149 0.0 0.0 0.00 0.00 0.00 43 1011.1
20260831204803 97 149 0.0 0.9 0.00 0.00 0.00 44 1011.2
20260831204303 97 181 0.0 0.0 0.00 0.00 0.00 44 1011.3
20260831203803 97 117 0.0 0.0 0.00 0.00 0.00 44 1011.3
20260831203303 97 165 0.0 0.0 0.00 0.00 0.00 43 1011.4
20260831201803 97 227 0.0 0.0 0.00 0.00 0.00 43 1011.4
20260831201303 98 227 0.0 0.0 0.00 0.00 0.00 43 1011.5
20260831200803 98 167 0.0 0.0 0.00 0.00 0.00 43 1011.6
20260831194803 98 171 0.0 0.0 0.00 0.00 0.00 43 1011.8
20260831193802 99 226 0.0 0.0 0.00 0.00 0.00 41 1011.9
20260831193302 99 225 0.0 0.0 0.00 0.00 0.00 42 1011.9
20260831191802 99 162 0.0 0.0 0.00 0.00 0.00 41 1012.1
20260831191303 99 127 0.0 0.0 0.00 0.00 0.00 43 1012.2
20260831190803 99 225 0.0 0.0 0.00 0.00 0.00 42 1012.2
20260831190302 98 238 0.0 0.0 0.00 0.00 0.00 45 1012.2
20260831184803 99 141 0.0 0.0 0.00 0.00 0.00 45 1012.3
20260831184303 99 125 0.0 0.0 0.00 0.00 0.00 41 1012.4
20260831183803 98 285 0.0 0.0 0.00 0.00 0.00 45 1012.4
20260831183303 99 184 0.0 0.0 0.00 0.00 0.00 44 1012.4
20260831181803 97 179 0.0 0.0 0.00 0.00 0.00 44 1012.5
20260831180802 97 188 0.0 0.0 0.00 0.00 0.00 42 1012.6
20260831180302 97 179 0.0 0.0 0.00 0.00 0.00 45 1012.7
20260831174803 97 239 0.0 0.0 0.00 0.00 0.00 47 1013.0
20260831174302 97 229 0.0 0.0 0.00 0.00 0.00 44 1013.0
20260831173802 96 178 0.0 0.0 0.00 0.00 0.00 48 1013.1
20260831173302 96 178 0.0 0.0 0.00 0.00 0.00 47 1013.1
20260831171303 95 146 0.0 0.0 0.00 0.00 0.00 48 1013.3
20260831170803 94 165 0.0 0.0 0.00 0.00 0.00 53 1013.4
20260831170306 94 196 0.0 0.0 0.00 0.00 0.00 51 1013.5
20260831164803 92 294 0.0 0.0 0.00 0.00 0.00 54 1013.6
20260831164303 91 136 0.0 0.0 0.00 0.00 0.00 55 1013.7
20260831163804 90 162 0.0 0.0 0.00 0.00 0.00 54 1013.6
20260831161803 89 167 0.0 0.0 0.00 0.00 0.00 56 1013.7
20260831161302 89 201 0.0 0.0 0.00 0.00 0.00 57 1013.7
20260831160802 88 166 0.0 0.0 0.00 0.00 0.00 59 1013.8
20260831154803 87 174 0.0 0.0 0.00 0.00 0.00 62 1013.8
20260831154303 87 198 0.0 0.0 0.00 0.00 0.00 62 1013.6
20260831153803 86 178 0.0 0.0 0.00 0.00 0.00 61 1013.6
20260831153303 85 176 0.0 0.0 0.00 0.00 0.00 63 1013.6
20260831151802 84 171 0.0 0.0 0.00 0.00 0.00 65 1013.6
20260831151303 83 169 0.0 0.0 0.00 0.00 0.00 66 1013.6
20260831150802 83 169 0.0 0.0 0.00 0.00 0.00 67 1013.6
20260831150303 83 174 0.0 0.9 0.00 0.00 0.00 65 1013.6
20260831144303 81 175 0.0 0.0 0.00 0.00 0.00 68 1013.7
20260831143802 80 181 0.0 0.0 0.00 0.00 0.00 68 1013.7
20260831143303 80 188 0.0 0.0 0.00 0.00 0.00 68 1013.7